Time,TemperatureF,DewpointF,PressureIn,WindDirection,WindDirectionDegrees,WindSpeedMPH,WindSpeedGustMPH,Humidity,HourlyPrecipIn,Conditions,Clouds,dailyrainin,SoftwareType,DateUTC
2013-02-27 00:00:00,34.5,32.4,29.89,ENE,59,13.0,18.0,92,0.08,,,0.12,VWS V14.01,2013-02-27 05:00:00,
2013-02-27 00:05:00,34.5,32.4,29.88,NE,49,11.0,11.0,92,0.10,,,0.02,VWS V14.01,2013-02-27 05:05:00,
2013-02-27 00:10:00,34.6,32.8,29.88,ENE,58,15.0,19.0,93,0.12,,,0.04,VWS V14.01,2013-02-27 05:10:00,
2013-02-27 00:15:00,34.6,32.8,29.88,ENE,65,8.0,19.0,93,0.13,,,0.05,VWS V14.01,2013-02-27 05:15:00,
2013-02-27 00:20:00,34.6,32.8,29.88,NE,46,4.0,14.0,93,0.14,,,0.06,VWS V14.01,2013-02-27 05:20:00,
2013-02-27 00:25:00,34.6,32.8,29.88,ENE,57,9.0,14.0,93,0.14,,,0.06,VWS V14.01,2013-02-27 05:25:00,
2013-02-27 00:30:00,34.6,32.8,29.88,ESE,108,16.0,18.0,93,0.15,,,0.07,VWS V14.01,2013-02-27 05:30:00,
2013-02-27 00:35:00,34.8,33.0,29.85,NE,38,12.0,18.0,93,0.14,,,0.07,VWS V14.01,2013-02-27 05:35:00,
2013-02-27 00:40:00,34.9,33.1,29.85,East,92,9.0,18.0,93,0.15,,,0.08,VWS V14.01,2013-02-27 05:40:00,
2013-02-27 00:45:00,34.9,33.1,29.85,NE,34,16.0,18.0,93,0.15,,,0.08,VWS V14.01,2013-02-27 05:45:00,
2013-02-27 00:50:00,34.9,33.1,29.85,NE,56,5.0,11.0,93,0.13,,,0.09,VWS V14.01,2013-02-27 05:50:00,
2013-02-27 00:55:00,34.9,33.1,29.85,ENE,71,11.0,13.0,93,0.13,,,0.09,VWS V14.01,2013-02-27 05:55:00,
2013-02-27 01:00:00,35.1,33.3,29.85,NE,40,10.0,23.0,93,0.13,,,0.09,VWS V14.01,2013-02-27 06:00:00,
2013-02-27 01:05:00,35.1,33.0,29.84,East,95,14.0,23.0,92,0.09,,,0.09,VWS V14.01,2013-02-27 06:05:00,
2013-02-27 01:10:00,35.1,33.0,29.84,ENE,57,8.0,23.0,92,0.10,,,0.10,VWS V14.01,2013-02-27 06:10:00,
2013-02-27 01:15:00,35.2,33.1,29.84,East,81,8.0,23.0,92,0.10,,,0.10,VWS V14.01,2013-02-27 06:15:00,
2013-02-27 01:20:00,35.2,33.1,29.84,NNE,14,10.0,18.0,92,0.05,,,0.10,VWS V14.01,2013-02-27 06:20:00,
2013-02-27 01:25:00,35.2,33.1,29.84,NE,44,12.0,18.0,92,0.05,,,0.10,VWS V14.01,2013-02-27 06:25:00,
2013-02-27 01:30:00,35.2,33.1,29.84,NE,41,18.0,21.0,92,0.06,,,0.11,VWS V14.01,2013-02-27 06:30:00,
2013-02-27 01:35:00,35.2,33.1,29.82,ENE,64,12.0,18.0,92,0.04,,,0.11,VWS V14.01,2013-02-27 06:35:00,
2013-02-27 01:40:00,35.4,33.3,29.82,NE,56,10.0,23.0,92,0.04,,,0.11,VWS V14.01,2013-02-27 06:40:00,
2013-02-27 01:45:00,35.4,33.6,29.82,ENE,75,5.0,23.0,93,0.04,,,0.11,VWS V14.01,2013-02-27 06:45:00,
2013-02-27 01:50:00,35.5,33.7,29.80,NE,42,22.0,24.0,93,0.03,,,0.11,VWS V14.01,2013-02-27 06:50:00,
2013-02-27 01:55:00,35.7,33.6,29.80,NNE,31,14.0,27.0,92,0.03,,,0.11,VWS V14.01,2013-02-27 06:55:00,
2013-02-27 02:00:00,35.7,33.6,29.80,ENE,58,10.0,27.0,92,0.03,,,0.11,VWS V14.01,2013-02-27 07:00:00,
2013-02-27 02:05:00,35.7,33.6,29.79,NNE,33,9.0,21.0,92,0.02,,,0.11,VWS V14.01,2013-02-27 07:05:00,
2013-02-27 02:10:00,35.7,33.6,29.79,ENE,72,0.0,25.0,92,0.02,,,0.11,VWS V14.01,2013-02-27 07:10:00,
2013-02-27 02:15:00,35.7,33.6,29.79,NE,44,7.0,25.0,92,0.02,,,0.11,VWS V14.01,2013-02-27 07:15:00,
2013-02-27 02:20:00,35.8,34.0,29.78,NE,34,6.0,20.0,93,0.01,,,0.11,VWS V14.01,2013-02-27 07:20:00,
2013-02-27 02:25:00,35.8,34.0,29.78,NE,34,9.0,20.0,93,0.01,,,0.11,VWS V14.01,2013-02-27 07:25:00,
2013-02-27 02:30:00,35.9,34.1,29.78,NE,53,11.0,20.0,93,0.01,,,0.11,VWS V14.01,2013-02-27 07:30:00,
2013-02-27 02:35:00,36.1,34.3,29.78,NNE,29,11.0,16.0,93,0.01,,,0.12,VWS V14.01,2013-02-27 07:35:00,
2013-02-27 02:39:00,36.2,34.4,29.78,ESE,107,5.0,22.0,93,0.01,,,0.12,VWS V14.01,2013-02-27 07:39:00,
2013-02-27 02:44:00,36.4,34.6,29.78,NE,53,10.0,22.0,93,0.01,,,0.12,VWS V14.01,2013-02-27 07:44:00,
2013-02-27 02:45:00,36.8,34.7,29.71,NE,44,13.0,21.0,92,0.04,,,0.16,VWS V14.01,2013-02-27 07:45:00,
2013-02-27 02:49:00,36.4,34.3,29.77,ENE,64,14.0,18.0,92,0.01,,,0.12,VWS V14.01,2013-02-27 07:49:00,
2013-02-27 02:54:00,36.4,34.3,29.77,NNE,30,6.0,25.0,92,0.02,,,0.13,VWS V14.01,2013-02-27 07:54:00,
2013-02-27 02:59:00,36.4,34.3,29.77,ENE,61,1.0,25.0,92,0.02,,,0.13,VWS V14.01,2013-02-27 07:59:00,
2013-02-27 03:00:00,36.8,34.7,29.72,East,80,10.0,27.0,92,0.04,,,0.16,VWS V14.01,2013-02-27 08:00:00,
2013-02-27 03:04:00,36.4,34.6,29.76,NE,41,9.0,15.0,93,0.03,,,0.14,VWS V14.01,2013-02-27 08:04:00,
2013-02-27 03:09:00,36.5,34.7,29.76,NE,52,21.0,21.0,93,0.03,,,0.14,VWS V14.01,2013-02-27 08:09:00,
2013-02-27 03:14:00,36.5,34.7,29.76,ENE,60,11.0,21.0,93,0.03,,,0.14,VWS V14.01,2013-02-27 08:14:00,
2013-02-27 03:15:00,37.1,35.0,29.70,ENE,63,10.0,24.0,92,0.02,,,0.16,VWS V14.01,2013-02-27 08:15:00,
2013-02-27 03:19:00,36.7,34.9,29.74,ENE,61,10.0,19.0,93,0.03,,,0.14,VWS V14.01,2013-02-27 08:19:00,
2013-02-27 03:24:00,36.8,34.7,29.74,NE,36,11.0,20.0,92,0.04,,,0.15,VWS V14.01,2013-02-27 08:24:00,
2013-02-27 03:29:00,36.8,34.7,29.74,ENE,65,11.0,20.0,92,0.04,,,0.15,VWS V14.01,2013-02-27 08:29:00,
2013-02-27 03:30:00,37.2,35.1,29.69,NE,48,9.0,31.0,92,0.03,,,0.17,VWS V14.01,2013-02-27 08:30:00,
2013-02-27 03:34:00,36.8,34.7,29.72,NE,46,4.0,16.0,92,0.03,,,0.15,VWS V14.01,2013-02-27 08:34:00,
2013-02-27 03:39:00,36.8,34.7,29.72,ENE,74,10.0,20.0,92,0.04,,,0.16,VWS V14.01,2013-02-27 08:39:00,
2013-02-27 03:44:00,36.8,34.7,29.72,NE,45,8.0,21.0,92,0.04,,,0.16,VWS V14.01,2013-02-27 08:44:00,
2013-02-27 03:45:00,37.5,35.4,29.67,East,80,7.0,26.0,92,0.02,,,0.17,VWS V14.01,2013-02-27 08:45:00,
2013-02-27 03:49:00,36.8,34.7,29.71,NE,50,14.0,15.0,92,0.04,,,0.16,VWS V14.01,2013-02-27 08:49:00,
2013-02-27 03:54:00,36.9,34.8,29.71,NE,55,27.0,27.0,92,0.04,,,0.16,VWS V14.01,2013-02-27 08:54:00,
2013-02-27 03:59:00,36.8,34.7,29.71,NNE,13,4.0,27.0,92,0.04,,,0.16,VWS V14.01,2013-02-27 08:59:00,
2013-02-27 04:00:00,37.8,35.7,29.67,ESE,113,8.0,23.0,92,0.01,,,0.17,VWS V14.01,2013-02-27 09:00:00,
2013-02-27 04:04:00,36.9,34.8,29.72,NE,53,7.0,18.0,92,0.02,,,0.16,VWS V14.01,2013-02-27 09:04:00,
2013-02-27 04:09:00,36.9,34.8,29.72,East,86,18.0,18.0,92,0.02,,,0.16,VWS V14.01,2013-02-27 09:09:00,
2013-02-27 04:14:00,37.1,35.0,29.72,NE,40,19.0,24.0,92,0.02,,,0.16,VWS V14.01,2013-02-27 09:14:00,
2013-02-27 04:15:00,38.2,36.1,29.66,ENE,59,10.0,27.0,92,0.01,,,0.17,VWS V14.01,2013-02-27 09:15:00,
2013-02-27 04:19:00,37.1,35.0,29.70,ENE,72,6.0,23.0,92,0.02,,,0.16,VWS V14.01,2013-02-27 09:19:00,
2013-02-27 04:24:00,37.2,35.1,29.70,ENE,61,6.0,31.0,92,0.03,,,0.17,VWS V14.01,2013-02-27 09:24:00,
2013-02-27 04:29:00,37.2,35.1,29.70,WNW,292,10.0,31.0,92,0.03,,,0.17,VWS V14.01,2013-02-27 09:29:00,
2013-02-27 04:30:00,38.5,36.4,29.65,NE,41,12.0,22.0,92,0.01,,,0.17,VWS V14.01,2013-02-27 09:30:00,
2013-02-27 04:34:00,37.2,35.1,29.69,ENE,75,9.0,21.0,92,0.02,,,0.17,VWS V14.01,2013-02-27 09:34:00,
2013-02-27 04:39:00,37.4,35.3,29.69,NE,43,9.0,23.0,92,0.02,,,0.17,VWS V14.01,2013-02-27 09:39:00,
2013-02-27 04:44:00,37.5,35.4,29.69,ENE,57,12.0,26.0,92,0.02,,,0.17,VWS V14.01,2013-02-27 09:44:00,
2013-02-27 04:45:00,38.7,36.6,29.65,East,80,8.0,22.0,92,0.00,,,0.17,VWS V14.01,2013-02-27 09:45:00,
2013-02-27 04:49:00,37.5,35.4,29.67,NE,53,11.0,20.0,92,0.01,,,0.17,VWS V14.01,2013-02-27 09:49:00,
2013-02-27 04:54:00,37.7,35.6,29.67,NE,34,5.0,20.0,92,0.01,,,0.17,VWS V14.01,2013-02-27 09:54:00,
2013-02-27 04:59:00,37.8,35.7,29.67,NE,55,21.0,21.0,92,0.01,,,0.17,VWS V14.01,2013-02-27 09:59:00,
2013-02-27 05:00:00,39.0,37.2,29.64,ENE,74,5.0,25.0,93,0.01,,,0.18,VWS V14.01,2013-02-27 10:00:00,
2013-02-27 05:04:00,37.8,35.7,29.67,ENE,78,12.0,16.0,92,0.01,,,0.17,VWS V14.01,2013-02-27 10:04:00,
2013-02-27 05:09:00,38.1,36.0,29.67,NE,55,11.0,23.0,92,0.01,,,0.17,VWS V14.01,2013-02-27 10:09:00,
2013-02-27 05:14:00,38.2,36.1,29.67,ENE,60,6.0,27.0,92,0.01,,,0.17,VWS V14.01,2013-02-27 10:14:00,
2013-02-27 05:15:00,39.2,37.3,29.63,ENE,59,9.0,24.0,93,0.01,,,0.18,VWS V14.01,2013-02-27 10:15:00,
2013-02-27 05:19:00,38.4,36.3,29.66,NNE,29,11.0,20.0,92,0.01,,,0.17,VWS V14.01,2013-02-27 10:19:00,
2013-02-27 05:24:00,38.5,36.4,29.66,NE,47,9.0,20.0,92,0.01,,,0.17,VWS V14.01,2013-02-27 10:24:00,
2013-02-27 05:29:00,38.5,36.4,29.66,NE,56,9.0,22.0,92,0.01,,,0.17,VWS V14.01,2013-02-27 10:29:00,
2013-02-27 05:30:00,39.5,37.9,29.62,NNE,25,10.0,20.0,94,0.02,,,0.19,VWS V14.01,2013-02-27 10:30:00,
2013-02-27 05:34:00,38.5,36.4,29.65,East,79,16.0,19.0,92,0.00,,,0.17,VWS V14.01,2013-02-27 10:34:00,
2013-02-27 05:39:00,38.7,36.6,29.65,NE,40,16.0,19.0,92,0.00,,,0.17,VWS V14.01,2013-02-27 10:39:00,
2013-02-27 05:44:00,38.7,36.6,29.65,ENE,75,6.0,22.0,92,0.00,,,0.17,VWS V14.01,2013-02-27 10:44:00,
2013-02-27 05:45:00,40.0,38.4,29.61,ENE,68,11.0,24.0,94,0.04,,,0.21,VWS V14.01,2013-02-27 10:45:00,
2013-02-27 05:49:00,38.7,36.6,29.65,NE,53,5.0,18.0,92,0.00,,,0.17,VWS V14.01,2013-02-27 10:49:00,
2013-02-27 05:54:00,38.8,36.7,29.65,ENE,57,20.0,20.0,92,0.00,,,0.17,VWS V14.01,2013-02-27 10:54:00,
2013-02-27 05:59:00,39.0,37.2,29.65,NNE,16,9.0,25.0,93,0.00,,,0.17,VWS V14.01,2013-02-27 10:59:00,
2013-02-27 06:00:00,40.2,38.6,29.59,ENE,68,10.0,26.0,94,0.04,,,0.21,VWS V14.01,2013-02-27 11:00:00,
2013-02-27 06:04:00,39.0,37.2,29.64,NE,44,12.0,20.0,93,0.01,,,0.18,VWS V14.01,2013-02-27 11:04:00,
2013-02-27 06:09:00,39.1,37.2,29.64,ENE,63,10.0,24.0,93,0.01,,,0.18,VWS V14.01,2013-02-27 11:09:00,
2013-02-27 06:14:00,39.1,37.2,29.64,NE,46,16.0,24.0,93,0.01,,,0.18,VWS V14.01,2013-02-27 11:14:00,
2013-02-27 06:15:00,40.7,39.1,29.59,ENE,68,10.0,22.0,94,0.03,,,0.21,VWS V14.01,2013-02-27 11:15:00,
2013-02-27 06:19:00,39.2,37.3,29.63,NE,47,12.0,19.0,93,0.02,,,0.19,VWS V14.01,2013-02-27 11:19:00,
2013-02-27 06:24:00,39.4,37.5,29.63,East,93,10.0,20.0,93,0.02,,,0.19,VWS V14.01,2013-02-27 11:24:00,
2013-02-27 06:29:00,39.5,37.9,29.63,ENE,71,11.0,20.0,94,0.02,,,0.19,VWS V14.01,2013-02-27 11:29:00,
2013-02-27 06:30:00,41.1,39.2,29.59,ENE,68,9.0,23.0,93,0.03,,,0.21,VWS V14.01,2013-02-27 11:30:00,
2013-02-27 06:34:00,39.5,37.9,29.62,NNE,30,12.0,24.0,94,0.02,,,0.19,VWS V14.01,2013-02-27 11:34:00,
2013-02-27 06:39:00,39.7,38.1,29.62,East,88,7.0,24.0,94,0.02,,,0.19,VWS V14.01,2013-02-27 11:39:00,
2013-02-27 06:44:00,39.8,38.2,29.62,East,84,10.0,24.0,94,0.02,,,0.19,VWS V14.01,2013-02-27 11:44:00,
2013-02-27 06:45:00,40.0,38.4,29.61,ENE,68,11.0,24.0,94,0.04,,,0.21,VWS V14.01,2013-02-27 11:45:00,
2013-02-27 06:49:00,40.0,38.4,29.61,NE,38,11.0,24.0,94,0.03,,,0.20,VWS V14.01,2013-02-27 11:49:00,
2013-02-27 06:54:00,40.1,38.5,29.61,ENE,76,10.0,24.0,94,0.03,,,0.20,VWS V14.01,2013-02-27 11:54:00,
2013-02-27 07:00:00,40.2,38.6,29.59,ENE,68,10.0,26.0,94,0.04,,,0.21,VWS V14.01,2013-02-27 12:00:00,
2013-02-27 07:15:00,40.7,39.1,29.59,ENE,68,10.0,22.0,94,0.03,,,0.21,VWS V14.01,2013-02-27 12:15:00,
2013-02-27 07:22:00,40.0,38.4,29.61,ENE,68,11.0,24.0,94,0.04,,,0.21,VWS V14.01,2013-02-27 12:22:00,
2013-02-27 07:28:00,40.0,38.4,29.61,ENE,68,11.0,24.0,94,0.04,,,0.21,VWS V14.01,2013-02-27 12:28:00,
2013-02-27 07:30:00,41.1,39.2,29.59,ENE,68,9.0,23.0,93,0.03,,,0.21,VWS V14.01,2013-02-27 12:30:00,
2013-02-27 07:45:00,44.0,42.1,29.55,ENE,75,13.0,25.0,93,0.00,,,0.20,VWS V14.01,2013-02-27 12:45:00,
2013-02-27 07:49:00,41.1,39.2,29.59,ENE,68,9.0,23.0,93,0.03,,,0.21,VWS V14.01,2013-02-27 12:49:00,
2013-02-27 07:54:00,41.8,40.2,29.58,ENE,57,11.0,21.0,94,0.01,,,0.20,VWS V14.01,2013-02-27 12:54:00,
2013-02-27 07:59:00,42.0,40.4,29.58,NE,56,7.0,21.0,94,0.01,,,0.20,VWS V14.01,2013-02-27 12:59:00,
2013-02-27 08:00:00,44.4,42.5,29.54,East,80,15.0,22.0,93,0.00,,,0.20,VWS V14.01,2013-02-27 13:00:00,
2013-02-27 08:04:00,42.1,40.5,29.57,ENE,64,8.0,15.0,94,0.00,,,0.20,VWS V14.01,2013-02-27 13:04:00,
2013-02-27 08:09:00,42.4,40.8,29.57,East,87,9.0,19.0,94,0.00,,,0.20,VWS V14.01,2013-02-27 13:09:00,
2013-02-27 08:14:00,42.5,42.2,29.57,ENE,76,9.0,24.0,99,0.00,,,0.20,VWS V14.01,2013-02-27 13:14:00,
2013-02-27 08:15:00,44.8,42.3,29.54,East,98,15.0,30.0,91,0.00,,,0.20,VWS V14.01,2013-02-27 13:15:00,
2013-02-27 08:19:00,42.8,41.2,29.57,ESE,103,10.0,18.0,94,0.00,,,0.20,VWS V14.01,2013-02-27 13:19:00,
2013-02-27 08:24:00,43.0,41.4,29.57,NE,48,21.0,26.0,94,0.00,,,0.20,VWS V14.01,2013-02-27 13:24:00,
2013-02-27 08:29:00,43.1,41.2,29.57,NE,37,11.0,26.0,93,0.00,,,0.20,VWS V14.01,2013-02-27 13:29:00,
2013-02-27 08:30:00,45.0,42.5,29.54,East,81,12.0,35.0,91,0.00,,,0.20,VWS V14.01,2013-02-27 13:30:00,
2013-02-27 08:34:00,43.4,41.5,29.56,East,84,19.0,25.0,93,0.00,,,0.20,VWS V14.01,2013-02-27 13:34:00,
2013-02-27 08:39:00,43.7,41.8,29.56,ENE,58,13.0,25.0,93,0.00,,,0.20,VWS V14.01,2013-02-27 13:39:00,
2013-02-27 08:44:00,43.8,41.9,29.56,NE,38,6.0,25.0,93,0.00,,,0.20,VWS V14.01,2013-02-27 13:44:00,
2013-02-27 08:45:00,45.0,42.5,29.53,NE,55,13.0,25.0,91,0.00,,,0.20,VWS V14.01,2013-02-27 13:45:00,
2013-02-27 08:49:00,44.0,42.1,29.55,NE,34,9.0,22.0,93,0.00,,,0.20,VWS V14.01,2013-02-27 13:49:00,
2013-02-27 08:54:00,44.2,42.3,29.55,ENE,65,15.0,22.0,93,0.00,,,0.20,VWS V14.01,2013-02-27 13:54:00,
2013-02-27 08:59:00,44.2,42.3,29.55,NE,53,8.0,22.0,93,0.00,,,0.20,VWS V14.01,2013-02-27 13:59:00,
2013-02-27 09:00:00,45.0,42.2,29.52,ENE,61,18.0,34.0,90,0.00,,,0.20,VWS V14.01,2013-02-27 14:00:00,
2013-02-27 09:04:00,44.4,42.5,29.54,East,90,21.0,22.0,93,0.00,,,0.20,VWS V14.01,2013-02-27 14:04:00,
2013-02-27 09:09:00,44.7,42.5,29.54,East,101,21.0,30.0,92,0.00,,,0.20,VWS V14.01,2013-02-27 14:09:00,
2013-02-27 09:14:00,44.8,42.6,29.54,ENE,58,12.0,30.0,92,0.00,,,0.20,VWS V14.01,2013-02-27 14:14:00,
2013-02-27 09:15:00,45.0,42.2,29.51,East,90,13.0,26.0,90,0.00,,,0.20,VWS V14.01,2013-02-27 14:15:00,
2013-02-27 09:19:00,44.8,42.3,29.54,ENE,72,20.0,35.0,91,0.00,,,0.20,VWS V14.01,2013-02-27 14:19:00,
2013-02-27 09:24:00,44.8,42.3,29.54,NE,54,15.0,35.0,91,0.00,,,0.20,VWS V14.01,2013-02-27 14:24:00,
2013-02-27 09:29:00,45.0,42.5,29.54,East,80,8.0,35.0,91,0.00,,,0.20,VWS V14.01,2013-02-27 14:29:00,
2013-02-27 09:30:00,45.0,42.2,29.52,East,81,14.0,22.0,90,0.00,,,0.20,VWS V14.01,2013-02-27 14:30:00,
2013-02-27 09:34:00,45.0,42.5,29.54,East,84,25.0,25.0,91,0.00,,,0.20,VWS V14.01,2013-02-27 14:34:00,
2013-02-27 09:39:00,45.0,42.5,29.54,NE,41,16.0,25.0,91,0.00,,,0.20,VWS V14.01,2013-02-27 14:39:00,
2013-02-27 09:44:00,45.0,42.5,29.54,ENE,65,9.0,25.0,91,0.00,,,0.20,VWS V14.01,2013-02-27 14:44:00,
2013-02-27 09:45:00,45.0,42.5,29.51,NE,56,4.0,23.0,91,0.00,,,0.20,VWS V14.01,2013-02-27 14:45:00,
2013-02-27 09:49:00,45.0,42.5,29.53,East,96,16.0,29.0,91,0.00,,,0.20,VWS V14.01,2013-02-27 14:49:00,
2013-02-27 09:54:00,45.0,42.5,29.53,ESE,107,22.0,34.0,91,0.00,,,0.20,VWS V14.01,2013-02-27 14:54:00,
2013-02-27 09:59:00,45.1,42.6,29.53,ENE,68,11.0,34.0,91,0.00,,,0.20,VWS V14.01,2013-02-27 14:59:00,
2013-02-27 10:00:00,45.1,42.9,29.52,NNE,22,6.0,29.0,92,0.00,,,0.20,VWS V14.01,2013-02-27 15:00:00,
2013-02-27 10:04:00,45.0,42.2,29.52,East,93,8.0,26.0,90,0.00,,,0.20,VWS V14.01,2013-02-27 15:04:00,
2013-02-27 10:09:00,45.0,42.2,29.52,NE,44,7.0,26.0,90,0.00,,,0.20,VWS V14.01,2013-02-27 15:09:00,
2013-02-27 10:14:00,45.0,42.2,29.52,East,89,12.0,26.0,90,0.00,,,0.20,VWS V14.01,2013-02-27 15:14:00,
2013-02-27 10:15:00,45.1,42.6,29.52,ENE,64,12.0,19.0,91,0.00,,,0.20,VWS V14.01,2013-02-27 15:15:00,
2013-02-27 10:19:00,45.0,42.2,29.51,East,98,9.0,15.0,90,0.00,,,0.20,VWS V14.01,2013-02-27 15:19:00,
2013-02-27 10:24:00,45.0,42.2,29.51,NE,46,8.0,18.0,90,0.00,,,0.20,VWS V14.01,2013-02-27 15:24:00,
2013-02-27 10:29:00,45.0,42.2,29.51,NE,40,5.0,22.0,90,0.00,,,0.20,VWS V14.01,2013-02-27 15:29:00,
2013-02-27 10:30:00,45.1,42.6,29.52,ENE,58,6.0,18.0,91,0.00,,,0.20,VWS V14.01,2013-02-27 15:30:00,
2013-02-27 10:34:00,45.0,42.5,29.52,NNW,346,19.0,19.0,91,0.00,,,0.20,VWS V14.01,2013-02-27 15:34:00,
2013-02-27 10:39:00,45.0,42.5,29.52,NE,51,10.0,23.0,91,0.00,,,0.20,VWS V14.01,2013-02-27 15:39:00,
2013-02-27 10:44:00,45.0,42.5,29.52,East,91,11.0,23.0,91,0.00,,,0.20,VWS V14.01,2013-02-27 15:44:00,
2013-02-27 10:45:00,45.1,42.6,29.52,NNE,27,0.0,9.0,91,0.00,,,0.20,VWS V14.01,2013-02-27 15:45:00,
2013-02-27 10:49:00,45.1,42.9,29.51,NE,56,16.0,20.0,92,0.00,,,0.20,VWS V14.01,2013-02-27 15:49:00,
2013-02-27 10:54:00,45.1,42.9,29.51,NE,55,16.0,29.0,92,0.00,,,0.20,VWS V14.01,2013-02-27 15:54:00,
2013-02-27 10:59:00,45.0,42.5,29.51,East,81,19.0,29.0,91,0.00,,,0.20,VWS V14.01,2013-02-27 15:59:00,
2013-02-27 11:00:00,45.1,42.6,29.51,East,80,7.0,13.0,91,0.00,,,0.20,VWS V14.01,2013-02-27 16:00:00,
2013-02-27 11:04:00,45.1,42.6,29.52,ENE,65,9.0,19.0,91,0.00,,,0.20,VWS V14.01,2013-02-27 16:04:00,
2013-02-27 11:09:00,45.1,42.9,29.52,East,90,10.0,19.0,92,0.00,,,0.20,VWS V14.01,2013-02-27 16:09:00,
2013-02-27 11:14:00,45.1,42.6,29.52,ENE,61,7.0,19.0,91,0.00,,,0.20,VWS V14.01,2013-02-27 16:14:00,
2013-02-27 11:15:00,45.0,42.8,29.52,West,265,4.0,7.0,92,0.00,,,0.20,VWS V14.01,2013-02-27 16:15:00,
2013-02-27 11:19:00,45.1,42.6,29.52,ESE,110,5.0,18.0,91,0.00,,,0.20,VWS V14.01,2013-02-27 16:19:00,
2013-02-27 11:24:00,45.1,42.6,29.52,NE,55,6.0,18.0,91,0.00,,,0.20,VWS V14.01,2013-02-27 16:24:00,
2013-02-27 11:29:00,45.1,42.6,29.52,ESE,123,0.0,18.0,91,0.00,,,0.20,VWS V14.01,2013-02-27 16:29:00,
2013-02-27 11:30:00,44.7,42.5,29.51,SW,219,5.0,12.0,92,0.00,,,0.20,VWS V14.01,2013-02-27 16:30:00,
2013-02-27 11:34:00,45.1,42.6,29.52,NE,46,1.0,9.0,91,0.00,,,0.20,VWS V14.01,2013-02-27 16:34:00,
2013-02-27 11:39:00,45.1,42.6,29.52,ENE,69,5.0,9.0,91,0.00,,,0.20,VWS V14.01,2013-02-27 16:39:00,
2013-02-27 11:44:00,45.1,42.6,29.52,North,360,2.0,9.0,91,0.00,,,0.20,VWS V14.01,2013-02-27 16:44:00,
2013-02-27 11:45:00,44.8,42.6,29.52,NNW,331,0.0,11.0,92,0.00,,,0.20,VWS V14.01,2013-02-27 16:45:00,
2013-02-27 11:49:00,45.3,42.8,29.52,NNE,27,4.0,5.0,91,0.00,,,0.20,VWS V14.01,2013-02-27 16:49:00,
2013-02-27 11:54:00,45.3,42.8,29.52,ENE,69,1.0,6.0,91,0.00,,,0.20,VWS V14.01,2013-02-27 16:54:00,
2013-02-27 11:59:00,45.3,42.8,29.52,ESE,104,10.0,10.0,91,0.00,,,0.20,VWS V14.01,2013-02-27 16:59:00,
2013-02-27 12:00:00,44.5,42.9,29.54,SW,234,6.0,15.0,94,0.02,,,0.22,VWS V14.01,2013-02-27 17:00:00,
2013-02-27 12:04:00,45.1,42.6,29.51,East,80,0.0,7.0,91,0.00,,,0.20,VWS V14.01,2013-02-27 17:04:00,
2013-02-27 12:09:00,45.1,42.9,29.51,NE,52,0.0,7.0,92,0.00,,,0.20,VWS V14.01,2013-02-27 17:09:00,
2013-02-27 12:14:00,45.0,42.8,29.51,South,182,2.0,7.0,92,0.00,,,0.20,VWS V14.01,2013-02-27 17:14:00,
2013-02-27 12:15:00,44.7,43.4,29.54,WSW,255,0.0,9.0,95,0.03,,,0.23,VWS V14.01,2013-02-27 17:15:00,
2013-02-27 12:19:00,45.0,42.8,29.52,WSW,246,2.0,8.0,92,0.00,,,0.20,VWS V14.01,2013-02-27 17:19:00,
2013-02-27 12:24:00,44.8,42.6,29.52,SW,225,3.0,12.0,92,0.00,,,0.20,VWS V14.01,2013-02-27 17:24:00,
2013-02-27 12:29:00,44.8,42.6,29.52,South,172,2.0,12.0,92,0.00,,,0.20,VWS V14.01,2013-02-27 17:29:00,
2013-02-27 12:30:00,44.2,43.1,29.54,WSW,242,2.0,12.0,96,0.03,,,0.23,VWS V14.01,2013-02-27 17:30:00,
2013-02-27 12:34:00,44.7,42.5,29.51,SSE,163,9.0,9.0,92,0.00,,,0.20,VWS V14.01,2013-02-27 17:34:00,
2013-02-27 12:39:00,44.7,42.5,29.51,South,182,2.0,11.0,92,0.00,,,0.20,VWS V14.01,2013-02-27 17:39:00,
2013-02-27 12:44:00,44.8,42.6,29.51,ENE,59,0.0,11.0,92,0.00,,,0.20,VWS V14.01,2013-02-27 17:44:00,
2013-02-27 12:45:00,44.1,43.0,29.53,West,273,2.0,12.0,96,0.03,,,0.23,VWS V14.01,2013-02-27 17:45:00,
2013-02-27 12:49:00,44.7,42.5,29.52,WNW,296,7.0,14.0,92,0.00,,,0.20,VWS V14.01,2013-02-27 17:49:00,
2013-02-27 12:54:00,44.7,42.8,29.52,West,265,5.0,14.0,93,0.01,,,0.21,VWS V14.01,2013-02-27 17:54:00,
2013-02-27 12:59:00,44.5,42.6,29.52,West,265,5.0,15.0,93,0.02,,,0.22,VWS V14.01,2013-02-27 17:59:00,
2013-02-27 13:00:00,44.8,42.9,29.53,WNW,283,0.0,9.0,93,0.03,,,0.23,VWS V14.01,2013-02-27 18:00:00,
2013-02-27 13:04:00,44.5,42.9,29.54,West,268,5.0,9.0,94,0.02,,,0.22,VWS V14.01,2013-02-27 18:04:00,
2013-02-27 13:09:00,44.5,43.2,29.54,West,263,5.0,9.0,95,0.02,,,0.22,VWS V14.01,2013-02-27 18:09:00,
2013-02-27 13:14:00,44.7,43.4,29.54,WSW,248,6.0,9.0,95,0.03,,,0.23,VWS V14.01,2013-02-27 18:14:00,
2013-02-27 13:15:00,45.9,42.8,29.52,NW,321,0.0,7.0,89,0.01,,,0.23,VWS V14.01,2013-02-27 18:15:00,
2013-02-27 13:19:00,44.5,43.2,29.54,West,271,5.0,12.0,95,0.03,,,0.23,VWS V14.01,2013-02-27 18:19:00,
2013-02-27 13:24:00,44.4,43.3,29.54,WSW,254,7.0,12.0,96,0.03,,,0.23,VWS V14.01,2013-02-27 18:24:00,
2013-02-27 13:29:00,44.2,43.1,29.54,West,265,8.0,12.0,96,0.03,,,0.23,VWS V14.01,2013-02-27 18:29:00,
2013-02-27 13:30:00,45.7,42.1,29.54,West,272,5.0,11.0,87,0.00,,,0.23,VWS V14.01,2013-02-27 18:30:00,
2013-02-27 13:34:00,44.1,43.0,29.54,SW,218,5.0,10.0,96,0.03,,,0.23,VWS V14.01,2013-02-27 18:34:00,
2013-02-27 13:39:00,44.0,42.9,29.54,WNW,282,3.0,11.0,96,0.03,,,0.23,VWS V14.01,2013-02-27 18:39:00,
2013-02-27 13:44:00,44.0,42.9,29.54,West,279,4.0,12.0,96,0.03,,,0.23,VWS V14.01,2013-02-27 18:44:00,
2013-02-27 13:45:00,45.3,41.1,29.54,WSW,250,5.0,12.0,85,0.00,,,0.23,VWS V14.01,2013-02-27 18:45:00,
2013-02-27 13:49:00,44.4,43.3,29.53,SW,236,7.0,9.0,96,0.03,,,0.23,VWS V14.01,2013-02-27 18:49:00,
2013-02-27 13:54:00,44.2,42.9,29.53,West,277,2.0,9.0,95,0.03,,,0.23,VWS V14.01,2013-02-27 18:54:00,
2013-02-27 13:59:00,44.2,42.3,29.53,West,278,1.0,9.0,93,0.03,,,0.23,VWS V14.01,2013-02-27 18:59:00,
2013-02-27 14:00:00,45.0,40.5,29.55,West,274,7.0,14.0,84,0.00,,,0.23,VWS V14.01,2013-02-27 19:00:00,
2013-02-27 14:04:00,44.8,42.6,29.53,WNW,292,0.0,1.0,92,0.01,,,0.23,VWS V14.01,2013-02-27 19:04:00,
2013-02-27 14:09:00,45.4,43.2,29.53,NNW,345,0.0,7.0,92,0.01,,,0.23,VWS V14.01,2013-02-27 19:09:00,
2013-02-27 14:14:00,45.7,42.7,29.53,NW,320,0.0,7.0,89,0.01,,,0.23,VWS V14.01,2013-02-27 19:14:00,
2013-02-27 14:15:00,45.1,39.9,29.55,West,281,10.0,11.0,82,0.00,,,0.23,VWS V14.01,2013-02-27 19:15:00,
2013-02-27 14:19:00,45.6,42.0,29.52,WSW,257,2.0,5.0,87,0.00,,,0.23,VWS V14.01,2013-02-27 19:19:00,
2013-02-27 14:24:00,45.6,42.0,29.52,West,275,3.0,6.0,87,0.00,,,0.23,VWS V14.01,2013-02-27 19:24:00,
2013-02-27 14:29:00,45.9,42.3,29.52,SW,228,11.0,11.0,87,0.00,,,0.23,VWS V14.01,2013-02-27 19:29:00,
2013-02-27 14:30:00,45.3,39.2,29.56,West,270,2.0,16.0,79,0.00,,,0.23,VWS V14.01,2013-02-27 19:30:00,
2013-02-27 14:33:00,45.7,41.8,29.54,WSW,258,9.0,11.0,86,0.00,,,0.23,VWS V14.01,2013-02-27 19:33:00,
2013-02-27 14:38:00,45.6,41.7,29.54,SW,231,6.0,11.0,86,0.00,,,0.23,VWS V14.01,2013-02-27 19:38:00,
2013-02-27 14:43:00,45.3,41.4,29.54,West,281,8.0,11.0,86,0.00,,,0.23,VWS V14.01,2013-02-27 19:43:00,
2013-02-27 14:45:00,45.3,39.2,29.57,West,277,5.0,14.0,79,0.00,,,0.23,VWS V14.01,2013-02-27 19:45:00,
2013-02-27 14:48:00,45.1,40.9,29.54,SW,225,5.0,8.0,85,0.00,,,0.23,VWS V14.01,2013-02-27 19:48:00,
2013-02-27 14:53:00,45.1,40.9,29.54,West,281,5.0,9.0,85,0.00,,,0.23,VWS V14.01,2013-02-27 19:53:00,
2013-02-27 14:58:00,45.1,40.9,29.54,West,281,8.0,10.0,85,0.00,,,0.23,VWS V14.01,2013-02-27 19:58:00,
2013-02-27 15:00:00,45.1,38.0,29.58,West,259,10.0,16.0,76,0.00,,,0.23,VWS V14.01,2013-02-27 20:00:00,
2013-02-27 15:03:00,45.0,40.5,29.55,WSW,253,0.0,9.0,84,0.00,,,0.23,VWS V14.01,2013-02-27 20:03:00,
2013-02-27 15:08:00,45.1,40.2,29.55,WSW,254,9.0,9.0,83,0.00,,,0.23,VWS V14.01,2013-02-27 20:08:00,
2013-02-27 15:13:00,45.1,39.9,29.55,West,273,8.0,11.0,82,0.00,,,0.23,VWS V14.01,2013-02-27 20:13:00,
2013-02-27 15:15:00,44.4,37.0,29.58,WSW,242,7.0,22.0,75,0.00,,,0.23,VWS V14.01,2013-02-27 20:15:00,
2013-02-27 15:18:00,45.3,40.1,29.55,WNW,287,4.0,11.0,82,0.00,,,0.23,VWS V14.01,2013-02-27 20:18:00,
2013-02-27 15:23:00,45.3,39.2,29.55,WSW,257,7.0,15.0,79,0.00,,,0.23,VWS V14.01,2013-02-27 20:23:00,
2013-02-27 15:28:00,45.3,39.2,29.55,WSW,252,10.0,16.0,79,0.00,,,0.23,VWS V14.01,2013-02-27 20:28:00,
2013-02-27 15:30:00,43.7,37.0,29.59,WNW,291,7.0,16.0,77,0.00,,,0.23,VWS V14.01,2013-02-27 20:30:00,
2013-02-27 15:33:00,45.3,39.2,29.56,West,264,2.0,10.0,79,0.00,,,0.23,VWS V14.01,2013-02-27 20:33:00,
2013-02-27 15:38:00,45.3,38.9,29.56,WSW,258,5.0,12.0,78,0.00,,,0.23,VWS V14.01,2013-02-27 20:38:00,
2013-02-27 15:43:00,45.3,39.2,29.56,WNW,286,7.0,12.0,79,0.00,,,0.23,VWS V14.01,2013-02-27 20:43:00,
2013-02-27 15:45:00,42.8,36.4,29.60,West,272,1.0,20.0,78,0.00,,,0.23,VWS V14.01,2013-02-27 20:45:00,
2013-02-27 15:48:00,45.4,39.0,29.57,West,263,13.0,13.0,78,0.00,,,0.23,VWS V14.01,2013-02-27 20:48:00,
2013-02-27 15:53:00,45.4,38.6,29.57,WNW,292,7.0,13.0,77,0.00,,,0.23,VWS V14.01,2013-02-27 20:53:00,
2013-02-27 15:58:00,45.3,38.2,29.57,WNW,290,5.0,16.0,76,0.00,,,0.23,VWS V14.01,2013-02-27 20:58:00,
2013-02-27 16:00:00,42.5,36.1,29.60,WNW,282,5.0,15.0,78,0.00,,,0.23,VWS V14.01,2013-02-27 21:00:00,
2013-02-27 16:03:00,45.1,38.0,29.58,NW,314,12.0,15.0,76,0.00,,,0.23,VWS V14.01,2013-02-27 21:03:00,
2013-02-27 16:08:00,45.0,36.9,29.58,WNW,291,0.0,22.0,73,0.00,,,0.23,VWS V14.01,2013-02-27 21:08:00,
2013-02-27 16:13:00,44.5,36.7,29.58,West,276,12.0,22.0,74,0.00,,,0.23,VWS V14.01,2013-02-27 21:13:00,
2013-02-27 16:15:00,42.5,36.1,29.60,WNW,290,5.0,14.0,78,0.00,,,0.23,VWS V14.01,2013-02-27 21:15:00,
2013-02-27 16:18:00,44.2,36.8,29.58,West,271,4.0,16.0,75,0.00,,,0.23,VWS V14.01,2013-02-27 21:18:00,
2013-02-27 16:23:00,44.0,36.9,29.58,WNW,283,9.0,16.0,76,0.00,,,0.23,VWS V14.01,2013-02-27 21:23:00,
2013-02-27 16:28:00,43.8,37.1,29.58,WNW,288,4.0,16.0,77,0.00,,,0.23,VWS V14.01,2013-02-27 21:28:00,
2013-02-27 16:30:00,42.4,36.0,29.61,West,269,7.0,11.0,78,0.00,,,0.23,VWS V14.01,2013-02-27 21:30:00,
2013-02-27 16:33:00,43.5,36.8,29.59,West,280,6.0,11.0,77,0.00,,,0.23,VWS V14.01,2013-02-27 21:33:00,
2013-02-27 16:38:00,43.1,36.4,29.59,West,265,6.0,20.0,77,0.00,,,0.23,VWS V14.01,2013-02-27 21:38:00,
2013-02-27 16:43:00,42.8,36.4,29.59,West,263,7.0,20.0,78,0.00,,,0.23,VWS V14.01,2013-02-27 21:43:00,
2013-02-27 16:45:00,42.4,36.4,29.62,West,259,4.0,11.0,79,0.00,,,0.23,VWS V14.01,2013-02-27 21:45:00,
2013-02-27 16:48:00,42.8,36.4,29.60,West,276,9.0,12.0,78,0.00,,,0.23,VWS V14.01,2013-02-27 21:48:00,
2013-02-27 16:53:00,42.7,36.3,29.60,West,269,7.0,13.0,78,0.00,,,0.23,VWS V14.01,2013-02-27 21:53:00,
2013-02-27 16:58:00,42.7,36.3,29.60,West,266,11.0,15.0,78,0.00,,,0.23,VWS V14.01,2013-02-27 21:58:00,
2013-02-27 17:00:00,42.2,35.8,29.63,West,261,2.0,9.0,78,0.00,,,0.23,VWS V14.01,2013-02-27 22:00:00,
2013-02-27 17:03:00,42.5,36.1,29.60,WNW,295,5.0,9.0,78,0.00,,,0.23,VWS V14.01,2013-02-27 22:03:00,
2013-02-27 17:08:00,42.5,36.1,29.60,West,273,10.0,14.0,78,0.00,,,0.23,VWS V14.01,2013-02-27 22:08:00,
2013-02-27 17:13:00,42.5,36.1,29.60,West,261,6.0,14.0,78,0.00,,,0.23,VWS V14.01,2013-02-27 22:13:00,
2013-02-27 17:15:00,42.2,35.8,29.63,West,273,4.0,11.0,78,0.00,,,0.23,VWS V14.01,2013-02-27 22:15:00,
2013-02-27 17:18:00,42.5,36.1,29.60,West,269,6.0,11.0,78,0.00,,,0.23,VWS V14.01,2013-02-27 22:18:00,
2013-02-27 17:23:00,42.4,36.0,29.60,West,265,2.0,11.0,78,0.00,,,0.23,VWS V14.01,2013-02-27 22:23:00,
2013-02-27 17:28:00,42.4,36.0,29.60,West,266,5.0,11.0,78,0.00,,,0.23,VWS V14.01,2013-02-27 22:28:00,
2013-02-27 17:30:00,42.2,35.8,29.63,West,268,0.0,8.0,78,0.00,,,0.23,VWS V14.01,2013-02-27 22:30:00,
2013-02-27 17:33:00,42.4,36.0,29.61,WSW,239,3.0,11.0,78,0.00,,,0.23,VWS V14.01,2013-02-27 22:33:00,
2013-02-27 17:38:00,42.4,36.0,29.61,West,270,5.0,11.0,78,0.00,,,0.23,VWS V14.01,2013-02-27 22:38:00,
2013-02-27 17:43:00,42.4,36.0,29.61,WSW,254,0.0,11.0,78,0.00,,,0.23,VWS V14.01,2013-02-27 22:43:00,
2013-02-27 17:45:00,42.1,36.1,29.64,WSW,245,0.0,8.0,79,0.00,,,0.23,VWS V14.01,2013-02-27 22:45:00,
2013-02-27 17:48:00,42.4,36.0,29.62,West,267,7.0,9.0,78,0.00,,,0.23,VWS V14.01,2013-02-27 22:48:00,
2013-02-27 17:53:00,42.4,36.4,29.62,West,263,5.0,9.0,79,0.00,,,0.23,VWS V14.01,2013-02-27 22:53:00,
2013-02-27 17:58:00,42.2,35.8,29.62,WSW,258,4.0,9.0,78,0.00,,,0.23,VWS V14.01,2013-02-27 22:58:00,
2013-02-27 18:00:00,42.2,36.2,29.64,West,268,5.0,11.0,79,0.00,,,0.23,VWS V14.01,2013-02-27 23:00:00,
2013-02-27 18:03:00,42.2,35.8,29.63,WNW,291,5.0,6.0,78,0.00,,,0.23,VWS V14.01,2013-02-27 23:03:00,
2013-02-27 18:08:00,42.2,36.2,29.63,WNW,300,0.0,9.0,79,0.00,,,0.23,VWS V14.01,2013-02-27 23:08:00,
2013-02-27 18:13:00,42.2,35.8,29.63,West,262,8.0,11.0,78,0.00,,,0.23,VWS V14.01,2013-02-27 23:13:00,
2013-02-27 18:15:00,42.1,36.1,29.64,WSW,246,5.0,9.0,79,0.00,,,0.23,VWS V14.01,2013-02-27 23:15:00,
2013-02-27 18:18:00,42.2,35.8,29.63,West,270,4.0,7.0,78,0.00,,,0.23,VWS V14.01,2013-02-27 23:18:00,
2013-02-27 18:23:00,42.2,35.8,29.63,West,267,0.0,8.0,78,0.00,,,0.23,VWS V14.01,2013-02-27 23:23:00,
2013-02-27 18:28:00,42.2,35.8,29.63,West,267,0.0,8.0,78,0.00,,,0.23,VWS V14.01,2013-02-27 23:28:00,
2013-02-27 18:30:00,42.1,36.1,29.65,West,268,0.0,7.0,79,0.00,,,0.23,VWS V14.01,2013-02-27 23:30:00,
2013-02-27 18:33:00,42.2,36.2,29.63,West,269,1.0,5.0,79,0.00,,,0.23,VWS V14.01,2013-02-27 23:33:00,
2013-02-27 18:38:00,42.2,36.2,29.63,West,263,5.0,8.0,79,0.00,,,0.23,VWS V14.01,2013-02-27 23:38:00,
2013-02-27 18:43:00,42.1,36.1,29.63,WNW,290,5.0,8.0,79,0.00,,,0.23,VWS V14.01,2013-02-27 23:43:00,
2013-02-27 18:45:00,42.0,36.3,29.65,WNW,284,0.0,5.0,80,0.00,,,0.23,VWS V14.01,2013-02-27 23:45:00,
2013-02-27 18:48:00,42.1,36.1,29.64,West,267,8.0,8.0,79,0.00,,,0.23,VWS V14.01,2013-02-27 23:48:00,
2013-02-27 18:53:00,42.2,36.2,29.64,WSW,240,9.0,11.0,79,0.00,,,0.23,VWS V14.01,2013-02-27 23:53:00,
2013-02-27 18:58:00,42.2,36.2,29.64,West,279,4.0,11.0,79,0.00,,,0.23,VWS V14.01,2013-02-27 23:58:00,
2013-02-27 19:00:00,41.8,36.4,29.65,West,279,1.0,4.0,81,0.00,,,0.23,VWS V14.01,2013-02-28 00:00:00,
2013-02-27 19:03:00,42.2,36.2,29.64,WNW,284,3.0,5.0,79,0.00,,,0.23,VWS V14.01,2013-02-28 00:03:00,
2013-02-27 19:08:00,42.1,36.1,29.64,WNW,286,5.0,8.0,79,0.00,,,0.23,VWS V14.01,2013-02-28 00:08:00,
2013-02-27 19:13:00,42.1,36.1,29.64,West,276,4.0,8.0,79,0.00,,,0.23,VWS V14.01,2013-02-28 00:13:00,
2013-02-27 19:15:00,41.7,36.3,29.65,West,263,0.0,5.0,81,0.00,,,0.23,VWS V14.01,2013-02-28 00:15:00,
2013-02-27 19:18:00,42.1,36.1,29.64,West,277,5.0,7.0,79,0.00,,,0.23,VWS V14.01,2013-02-28 00:18:00,
2013-02-27 19:23:00,42.1,36.1,29.64,West,267,0.0,7.0,79,0.00,,,0.23,VWS V14.01,2013-02-28 00:23:00,
2013-02-27 19:28:00,42.1,36.1,29.64,West,268,2.0,7.0,79,0.00,,,0.23,VWS V14.01,2013-02-28 00:28:00,
2013-02-27 19:30:00,41.4,36.0,29.65,WSW,258,0.0,2.0,81,0.00,,,0.23,VWS V14.01,2013-02-28 00:30:00,
2013-02-27 19:33:00,42.1,36.1,29.65,West,268,2.0,5.0,79,0.00,,,0.23,VWS V14.01,2013-02-28 00:33:00,
2013-02-27 19:38:00,42.1,36.1,29.65,West,268,2.0,5.0,79,0.00,,,0.23,VWS V14.01,2013-02-28 00:38:00,
2013-02-27 19:43:00,42.0,36.3,29.65,West,268,0.0,5.0,80,0.00,,,0.23,VWS V14.01,2013-02-28 00:43:00,
2013-02-27 19:45:00,41.0,35.9,29.65,WSW,258,0.0,0.0,82,0.00,,,0.23,VWS V14.01,2013-02-28 00:45:00,
2013-02-27 19:48:00,42.0,36.3,29.65,WNW,284,0.0,0.0,80,0.00,,,0.23,VWS V14.01,2013-02-28 00:48:00,
2013-02-27 19:53:00,42.0,36.3,29.65,West,279,0.0,0.0,80,0.00,,,0.23,VWS V14.01,2013-02-28 00:53:00,
2013-02-27 19:58:00,41.8,36.4,29.65,West,279,0.0,4.0,81,0.00,,,0.23,VWS V14.01,2013-02-28 00:58:00,
2013-02-27 20:00:00,40.1,35.4,29.66,WSW,258,0.0,0.0,83,0.00,,,0.23,VWS V14.01,2013-02-28 01:00:00,
2013-02-27 20:03:00,41.8,36.4,29.65,West,279,4.0,5.0,81,0.00,,,0.23,VWS V14.01,2013-02-28 01:03:00,
2013-02-27 20:08:00,41.7,36.3,29.65,West,261,0.0,5.0,81,0.00,,,0.23,VWS V14.01,2013-02-28 01:08:00,
2013-02-27 20:13:00,41.7,36.3,29.65,West,263,4.0,5.0,81,0.00,,,0.23,VWS V14.01,2013-02-28 01:13:00,
2013-02-27 20:15:00,39.2,35.1,29.66,WSW,258,0.0,0.0,85,0.00,,,0.23,VWS V14.01,2013-02-28 01:15:00,
2013-02-27 20:18:00,41.7,36.3,29.65,West,263,0.0,0.0,81,0.00,,,0.23,VWS V14.01,2013-02-28 01:18:00,
2013-02-27 20:23:00,41.5,36.1,29.65,WSW,258,0.0,2.0,81,0.00,,,0.23,VWS V14.01,2013-02-28 01:23:00,
2013-02-27 20:28:00,41.5,36.1,29.65,WSW,258,0.0,2.0,81,0.00,,,0.23,VWS V14.01,2013-02-28 01:28:00,
2013-02-27 20:30:00,39.0,35.5,29.66,West,267,0.0,4.0,87,0.00,,,0.23,VWS V14.01,2013-02-28 01:30:00,
2013-02-27 20:33:00,41.4,36.0,29.65,WSW,258,0.0,0.0,81,0.00,,,0.23,VWS V14.01,2013-02-28 01:33:00,
2013-02-27 20:38:00,41.2,35.8,29.65,WSW,258,0.0,0.0,81,0.00,,,0.23,VWS V14.01,2013-02-28 01:38:00,
2013-02-27 20:43:00,41.1,36.0,29.65,WSW,258,0.0,0.0,82,0.00,,,0.23,VWS V14.01,2013-02-28 01:43:00,
2013-02-27 20:45:00,39.8,36.0,29.66,WSW,248,0.0,5.0,86,0.00,,,0.23,VWS V14.01,2013-02-28 01:45:00,
2013-02-27 20:48:00,41.0,35.9,29.65,WSW,258,0.0,0.0,82,0.00,,,0.23,VWS V14.01,2013-02-28 01:48:00,
2013-02-27 20:53:00,40.7,35.6,29.65,WSW,258,0.0,0.0,82,0.00,,,0.23,VWS V14.01,2013-02-28 01:53:00,
2013-02-27 20:58:00,40.2,35.5,29.65,WSW,258,0.0,0.0,83,0.00,,,0.23,VWS V14.01,2013-02-28 01:58:00,
2013-02-27 21:00:00,40.4,36.3,29.66,West,262,0.0,5.0,85,0.00,,,0.23,VWS V14.01,2013-02-28 02:00:00,
2013-02-27 21:03:00,40.1,35.4,29.66,WSW,258,0.0,0.0,83,0.00,,,0.23,VWS V14.01,2013-02-28 02:03:00,
2013-02-27 21:08:00,39.7,35.3,29.66,WSW,258,0.0,0.0,84,0.00,,,0.23,VWS V14.01,2013-02-28 02:08:00,
2013-02-27 21:13:00,39.4,35.3,29.66,WSW,258,0.0,0.0,85,0.00,,,0.23,VWS V14.01,2013-02-28 02:13:00,
2013-02-27 21:15:00,40.7,36.2,29.66,West,262,2.0,4.0,84,0.00,,,0.23,VWS V14.01,2013-02-28 02:15:00,
2013-02-27 21:18:00,39.2,35.1,29.66,WSW,258,0.0,0.0,85,0.00,,,0.23,VWS V14.01,2013-02-28 02:18:00,
2013-02-27 21:23:00,39.0,35.2,29.66,WSW,258,0.0,0.0,86,0.00,,,0.23,VWS V14.01,2013-02-28 02:23:00,
2013-02-27 21:28:00,39.0,35.2,29.66,West,266,2.0,4.0,86,0.00,,,0.23,VWS V14.01,2013-02-28 02:28:00,
2013-02-27 21:30:00,41.0,36.2,29.65,West,262,0.0,2.0,83,0.00,,,0.23,VWS V14.01,2013-02-28 02:30:00,
2013-02-27 21:33:00,39.1,35.6,29.66,West,267,0.0,0.0,87,0.00,,,0.23,VWS V14.01,2013-02-28 02:33:00,
2013-02-27 21:38:00,39.4,35.9,29.66,WSW,246,0.0,5.0,87,0.00,,,0.23,VWS V14.01,2013-02-28 02:38:00,
2013-02-27 21:43:00,39.7,35.9,29.66,WSW,248,0.0,5.0,86,0.00,,,0.23,VWS V14.01,2013-02-28 02:43:00,
2013-02-27 21:45:00,40.5,36.1,29.64,West,263,0.0,2.0,84,0.00,,,0.23,VWS V14.01,2013-02-28 02:45:00,
2013-02-27 21:48:00,39.8,36.0,29.66,WSW,248,0.0,0.0,86,0.00,,,0.23,VWS V14.01,2013-02-28 02:48:00,
2013-02-27 21:53:00,40.1,36.3,29.66,WSW,248,0.0,3.0,86,0.00,,,0.23,VWS V14.01,2013-02-28 02:53:00,
2013-02-27 21:58:00,40.2,36.1,29.66,West,262,1.0,5.0,85,0.00,,,0.23,VWS V14.01,2013-02-28 02:58:00,
2013-02-27 22:00:00,40.5,36.1,29.64,West,262,0.0,2.0,84,0.00,,,0.23,VWS V14.01,2013-02-28 03:00:00,
2013-02-27 22:03:00,40.5,36.3,29.66,West,263,0.0,0.0,85,0.00,,,0.23,VWS V14.01,2013-02-28 03:03:00,
2013-02-27 22:08:00,40.5,36.0,29.66,West,263,0.0,0.0,84,0.00,,,0.23,VWS V14.01,2013-02-28 03:08:00,
2013-02-27 22:13:00,40.7,36.2,29.66,West,262,0.0,2.0,84,0.00,,,0.23,VWS V14.01,2013-02-28 03:13:00,
2013-02-27 22:15:00,40.4,36.0,29.63,West,263,0.0,0.0,84,0.00,,,0.23,VWS V14.01,2013-02-28 03:15:00,
2013-02-27 22:18:00,40.8,36.3,29.66,West,262,2.0,2.0,84,0.00,,,0.23,VWS V14.01,2013-02-28 03:18:00,
2013-02-27 22:23:00,41.0,36.2,29.66,West,262,0.0,2.0,83,0.00,,,0.23,VWS V14.01,2013-02-28 03:23:00,
2013-02-27 22:28:00,41.0,36.2,29.66,West,262,0.0,2.0,83,0.00,,,0.23,VWS V14.01,2013-02-28 03:28:00,
2013-02-27 22:30:00,40.0,36.2,29.63,NNW,345,0.0,4.0,86,0.00,,,0.23,VWS V14.01,2013-02-28 03:30:00,
2013-02-27 22:33:00,41.0,36.2,29.65,West,263,0.0,0.0,83,0.00,,,0.23,VWS V14.01,2013-02-28 03:33:00,
2013-02-27 22:38:00,40.8,36.0,29.65,West,262,0.0,0.0,83,0.00,,,0.23,VWS V14.01,2013-02-28 03:38:00,
2013-02-27 22:43:00,40.5,36.0,29.65,West,263,1.0,1.0,84,0.00,,,0.23,VWS V14.01,2013-02-28 03:43:00,
2013-02-27 22:45:00,39.7,35.9,29.63,NNW,345,0.0,0.0,86,0.00,,,0.23,VWS V14.01,2013-02-28 03:45:00,
2013-02-27 22:48:00,40.5,36.0,29.64,West,263,0.0,0.0,84,0.00,,,0.23,VWS V14.01,2013-02-28 03:48:00,
2013-02-27 22:53:00,40.5,36.0,29.64,West,262,0.0,0.0,84,0.00,,,0.23,VWS V14.01,2013-02-28 03:53:00,
2013-02-27 22:58:00,40.5,36.0,29.64,West,262,0.0,2.0,84,0.00,,,0.23,VWS V14.01,2013-02-28 03:58:00,
2013-02-27 23:00:00,39.4,36.2,29.62,NNW,345,0.0,0.0,88,0.00,,,0.23,VWS V14.01,2013-02-28 04:00:00,
2013-02-27 23:03:00,40.5,36.0,29.64,West,262,0.0,0.0,84,0.00,,,0.23,VWS V14.01,2013-02-28 04:03:00,
2013-02-27 23:08:00,40.5,36.0,29.64,West,263,0.0,0.0,84,0.00,,,0.23,VWS V14.01,2013-02-28 04:08:00,
2013-02-27 23:13:00,40.4,36.0,29.64,West,263,0.0,0.0,84,0.00,,,0.23,VWS V14.01,2013-02-28 04:13:00,
2013-02-27 23:15:00,39.0,36.0,29.62,NNW,345,0.0,0.0,89,0.00,,,0.00,VWS V14.01,2013-02-28 04:15:00,
2013-02-27 23:18:00,40.4,36.0,29.63,West,262,0.0,0.0,84,0.00,,,0.23,VWS V14.01,2013-02-28 04:18:00,
2013-02-27 23:23:00,40.2,36.1,29.63,West,263,0.0,0.0,85,0.00,,,0.23,VWS V14.01,2013-02-28 04:23:00,
2013-02-27 23:28:00,40.0,35.9,29.63,NNW,345,0.0,4.0,85,0.00,,,0.23,VWS V14.01,2013-02-28 04:28:00,
2013-02-27 23:30:00,38.8,35.8,29.62,NNW,345,0.0,0.0,89,0.00,,,0.00,VWS V14.01,2013-02-28 04:30:00,
2013-02-27 23:33:00,39.8,36.0,29.63,NNW,345,0.0,0.0,86,0.00,,,0.23,VWS V14.01,2013-02-28 04:33:00,
2013-02-27 23:38:00,39.8,36.0,29.63,NNW,345,0.0,0.0,86,0.00,,,0.23,VWS V14.01,2013-02-28 04:38:00,
2013-02-27 23:42:00,39.7,35.9,29.63,NNW,345,0.0,0.0,86,0.00,,,0.23,VWS V14.01,2013-02-28 04:42:00,
2013-02-27 23:45:00,38.5,35.5,29.62,NNW,345,0.0,0.0,89,0.00,,,0.00,VWS V14.01,2013-02-28 04:45:00,
2013-02-27 23:47:00,39.7,35.9,29.63,NNW,345,0.0,0.0,86,0.00,,,0.23,VWS V14.01,2013-02-28 04:47:00,
2013-02-27 23:52:00,39.5,36.0,29.63,NNW,345,0.0,0.0,87,0.00,,,0.23,VWS V14.01,2013-02-28 04:52:00,
2013-02-27 23:57:00,39.5,36.2,29.63,NNW,345,0.0,0.0,88,0.00,,,0.23,VWS V14.01,2013-02-28 04:57:00,